Simultaneous Nadir Overpasses (SNOs) Predictions

Prediction of SNOs between METOP-A and NOAA-19 Satellite Orbit:

Table of predicted SNOs for the next 14.0 days since TLE Epoch: 8/4/2014
Index Date (METOP-A) Time (METOP-A) Lat,Lon (METOP-A) SZA (METOP-A ) Date (NOAA-19) Time (NOAA-19) Lat,Lon (NOAA-19) SZA (NOAA-19 ) Distance(km) Time Diff (sec)
1 08/08/2014 23:18:16 -74.44, 6.17 121.50 08/08/2014 23:17:04 -74.47, 4.90 121.42 37.86 72
2 08/09/2014 00:09:00 74.22, 172.93 58.31 08/09/2014 00:07:56 74.21, 172.86 58.31 2.42 64
3 08/09/2014 00:59:43 -74.18, -19.84 121.72 08/09/2014 00:59:01 -74.16, -19.78 121.74 3.24 42
4 08/09/2014 01:50:23 74.15, 147.42 58.26 08/09/2014 01:49:59 74.19, 147.41 58.30 3.73 24
5 08/09/2014 02:41:05 -74.16, -45.23 121.72 08/09/2014 02:41:04 -74.13, -45.23 121.75 3.30 1
6
